Terminal Aerodrome Forecast
Issued by NWS La Crosse, WI

Home | Current Version | Previous Version | Text Only | Print | Product List | Glossary On
Versions: 1 2 3 4 5 6 7 8 9 10 11 12 13 14 15 16 17 18 19 20 21 22 23 24 25 26 27 28 29 30 31 32 33 34 35 36 37 38 39 40 41 42 43 44 45 46 47 48 49 50
000
FTUS43 KARX 241130
TAFRST
TAF
KRST 241130Z 2412/2512 31020G28KT 2SM -SN OVC008
      TEMPO 2412/2414 1SM -SN
     FM241600 31022G30KT 3SM -SN OVC012
     FM242000 31020G28KT 5SM -SN OVC020
     FM250300 31018G24KT P6SM -SN OVC012
     FM250700 31014KT P6SM OVC012=

USA.gov is the U.S. government's official web portal to all federal, state and local government web resources and services.